Regional Weather Roundup
Issued by NWS

Home | Current Version | Previous Version | Text Only | Print | Product List | Glossary Off
Versions: 1 2 3 4 5 6 7 8 9 10 11 12 13 14 15 16 17 18 19 20 21 22 23 24 25 26 27 28 29 30 31 32 33 34 35 36 37 38 39 40 41 42 43 44 45 46 47 48 49 50

000
ASUS43 KLSX 241107
RWRMO

WEATHER SUMMARY FOR MISSOURI
NATIONAL WEATHER SERVICE SPRINGFIELD MO
600 AM CDT TUE APR 24 2018

NOTE: "FAIR" INDICATES FEW OR NO CLOUDS BELOW 12,000 FEET WITH NO
       SIGNIFICANT WEATHER AND/OR OBSTRUCTIONS TO VISIBILITY.
       CURRENT SKY AND/OR WEATHER CONDITIONS ARE NOT AVAILABLE FOR
       CHILLICOTHE AND FARMINGTON.

MOZ001>031-035>038-043-044-053-054-241200-
...NORTHERN AND WESTERN MISSOURI...

CITY           SKY/WX    TMP DP  RH WIND       PRES   REMARKS
KANSAS CTY INT PTCLDY    48  30  49 N6        30.09R
KANSAS C DTWN  CLEAR     46  37  71 CALM      30.08S
LEE`S SUMMIT   CLEAR     51  32  48 N5        30.08S
ST JOSEPH      CLEAR     37  32  82 N5        30.11R
CHILLICOTHE      N/A     47  30  51 CALM      30.09S
KIRKSVILLE     CLEAR     43  33  68 N7        30.08R

$$
MOZ066>068-077>081-088>096-101>105-241200-
...SOUTHWEST MISSOURI...

CITY           SKY/WX    TMP DP  RH WIND       PRES   REMARKS
SPRINGFIELD    CLEAR     44  39  82 CALM      30.03R
JOPLIN         CLEAR     45  41  86 CALM      30.07R
BRANSON        CLEAR     50  46  87 CALM      30.04R

$$
MOZ032>034-039>042-045>050-055>058-069>072-241200-
...CENTRAL MISSOURI...

CITY           SKY/WX    TMP DP  RH WIND       PRES   REMARKS
COLUMBIA       MOCLDY    50  47  89 N6        30.05R
JEFFERSON CITY CLOUDY    51  47  86 NW7       30.05R
ROLLA          CLOUDY    54  51  90 N6        30.03R
SEDALIA        CLEAR     47  36  65 NW6       30.06R
WHITEMAN AFB   CLEAR     46  33  62 N7        30.03
WARRENSBURG    CLEAR     46  32  57 NW6       30.07S
OSAGE BEACH    CLEAR     46  46 100 N5        30.05R

$$
MOZ051-052-059>065-241200-
...EAST CENTRAL MISSOURI...

CITY           SKY/WX    TMP DP  RH WIND       PRES   REMARKS
ST LOUIS INTL  CLOUDY    55  54  96 N10       29.99R
SPIRIT OF STL  CLOUDY    56  55  97 N3        30.00R
ST CHARLES     CLOUDY    56  54  93 NW7       30.00R FOG

$$
MOZ072>076-082>087-097>100-106>115-241200-
...SOUTH CENTRAL AND SOUTHEAST MISSOURI...

CITY           SKY/WX    TMP DP  RH WIND       PRES   REMARKS
CAPE GIRARDEAU CLOUDY    57  55  93 N7        29.94R
FARMINGTON       N/A    N/A N/A N/A N8        29.98R FOG
POPLAR BLUFF   CLOUDY    57  56  96 NW3       29.95R
WEST PLAINS    CLOUDY    55  51  86 N8        30.01R

$$




USA.gov is the U.S. government's official web portal to all federal, state and local government web resources and services.